Time,TemperatureF,DewpointF,PressureIn,WindDirection,WindDirectionDegrees,WindSpeedMPH,WindSpeedGustMPH,Humidity,HourlyPrecipIn,Conditions,Clouds,dailyrainin,SoftwareType,DateUTC
2015-04-01 00:03:00,43.3,36.9,30.03,ENE,64,0.0,1.0,78,0.00,,---,0.00,VWS V15.00,2015-04-01 04:03:00,
2015-04-01 00:04:00,43.1,36.7,30.03,East,79,1.0,2.0,78,0.00,,---,0.00,VWS V15.00,2015-04-01 04:04:00,
2015-04-01 00:05:00,43.2,36.8,30.03,NE,55,0.0,2.0,78,0.00,,---,0.00,VWS V15.00,2015-04-01 04:05:00,
2015-04-01 00:06:00,43.2,36.8,30.03,ENE,78,3.0,3.0,78,0.00,,---,0.00,VWS V15.00,2015-04-01 04:06:00,
2015-04-01 00:07:00,43.2,36.8,30.03,East,79,2.0,3.0,78,0.00,,---,0.00,VWS V15.00,2015-04-01 04:07:00,
2015-04-01 00:08:00,43.1,36.7,30.03,East,79,2.0,2.0,78,0.00,,---,0.00,VWS V15.00,2015-04-01 04:08:00,
2015-04-01 00:09:00,42.9,36.8,30.03,NE,46,1.0,1.0,79,0.00,,---,0.00,VWS V15.00,2015-04-01 04:09:00,
2015-04-01 00:12:00,42.9,36.8,30.03,NE,46,0.0,1.0,79,0.00,,---,0.00,VWS V15.00,2015-04-01 04:12:00,
2015-04-01 00:13:00,42.9,36.8,30.03,NE,46,2.0,3.0,79,0.00,,---,0.00,VWS V15.00,2015-04-01 04:13:00,
2015-04-01 00:14:00,42.7,36.7,30.03,ENE,74,6.0,6.0,79,0.00,,---,0.00,VWS V15.00,2015-04-01 04:14:00,
2015-04-01 00:16:00,42.7,36.7,30.03,ENE,70,5.0,6.0,79,0.00,,---,0.00,VWS V15.00,2015-04-01 04:16:00,
2015-04-01 00:17:00,42.7,36.7,30.03,East,83,3.0,5.0,79,0.00,,---,0.00,VWS V15.00,2015-04-01 04:17:00,
2015-04-01 00:19:00,42.3,36.6,30.03,East,90,2.0,3.0,80,0.00,,---,0.00,VWS V15.00,2015-04-01 04:19:00,
2015-04-01 00:23:00,42.3,36.6,30.03,East,79,3.0,6.0,80,0.00,,---,0.00,VWS V15.00,2015-04-01 04:23:00,
2015-04-01 00:24:00,42.0,36.3,30.04,NE,53,4.0,4.0,80,0.00,,---,0.00,VWS V15.00,2015-04-01 04:24:00,
2015-04-01 00:25:00,42.1,36.4,30.04,East,79,0.0,2.0,80,0.00,,---,0.00,VWS V15.00,2015-04-01 04:25:00,
2015-04-01 00:26:00,42.1,36.4,30.04,NE,52,2.0,2.0,80,0.00,,---,0.00,VWS V15.00,2015-04-01 04:26:00,
2015-04-01 00:27:00,42.0,36.3,30.04,SSW,201,2.0,3.0,80,0.00,,---,0.00,VWS V15.00,2015-04-01 04:27:00,
2015-04-01 00:28:00,41.9,36.2,30.04,NE,53,4.0,5.0,80,0.00,,---,0.00,VWS V15.00,2015-04-01 04:28:00,
2015-04-01 00:29:00,41.7,36.0,30.04,ENE,62,3.0,3.0,80,0.00,,---,0.00,VWS V15.00,2015-04-01 04:29:00,
2015-04-01 00:31:00,41.7,36.0,30.04,East,83,3.0,5.0,80,0.00,,---,0.00,VWS V15.00,2015-04-01 04:31:00,
2015-04-01 00:33:00,41.6,35.9,30.04,ENE,58,0.0,3.0,80,0.00,,---,0.00,VWS V15.00,2015-04-01 04:33:00,
2015-04-01 00:34:00,41.4,35.7,30.03,ENE,69,0.0,2.0,80,0.00,,---,0.00,VWS V15.00,2015-04-01 04:34:00,
2015-04-01 00:35:00,41.5,35.8,30.04,ENE,65,2.0,3.0,80,0.00,,---,0.00,VWS V15.00,2015-04-01 04:35:00,
2015-04-01 00:36:00,41.5,35.8,30.03,ENE,66,0.0,4.0,80,0.00,,---,0.00,VWS V15.00,2015-04-01 04:36:00,
2015-04-01 00:37:00,41.4,35.7,30.03,ENE,69,1.0,2.0,80,0.00,,---,0.00,VWS V15.00,2015-04-01 04:37:00,
2015-04-01 00:39:00,41.1,35.4,30.04,ENE,69,0.0,1.0,80,0.00,,---,0.00,VWS V15.00,2015-04-01 04:39:00,
2015-04-01 00:41:00,41.3,35.6,30.03,ENE,69,0.0,1.0,80,0.00,,---,0.00,VWS V15.00,2015-04-01 04:41:00,
2015-04-01 00:44:00,40.9,35.5,30.03,NE,46,0.0,1.0,81,0.00,,---,0.00,VWS V15.00,2015-04-01 04:44:00,
2015-04-01 00:45:00,41.0,35.3,30.04,NE,44,0.0,3.0,80,0.00,,---,0.00,VWS V15.00,2015-04-01 04:45:00,
2015-04-01 00:47:00,40.9,35.5,30.03,NE,46,0.0,1.0,81,0.00,,---,0.00,VWS V15.00,2015-04-01 04:47:00,
2015-04-01 00:48:00,40.9,35.5,30.03,NE,50,1.0,1.0,81,0.00,,---,0.00,VWS V15.00,2015-04-01 04:48:00,
2015-04-01 00:49:00,40.7,35.3,30.03,East,81,3.0,3.0,81,0.00,,---,0.00,VWS V15.00,2015-04-01 04:49:00,
2015-04-01 00:50:00,40.8,35.4,30.03,East,80,3.0,5.0,81,0.00,,---,0.00,VWS V15.00,2015-04-01 04:50:00,
2015-04-01 00:51:00,40.7,35.3,30.03,East,81,0.0,3.0,81,0.00,,---,0.00,VWS V15.00,2015-04-01 04:51:00,
2015-04-01 00:52:00,40.7,35.3,30.03,East,81,1.0,2.0,81,0.00,,---,0.00,VWS V15.00,2015-04-01 04:52:00,
2015-04-01 00:54:00,40.5,35.5,30.03,East,81,0.0,0.0,82,0.00,,---,0.00,VWS V15.00,2015-04-01 04:54:00,
2015-04-01 00:55:00,40.6,35.5,30.03,East,81,0.0,1.0,82,0.00,,---,0.00,VWS V15.00,2015-04-01 04:55:00,
2015-04-01 00:56:00,40.5,35.5,30.03,East,81,0.0,0.0,82,0.00,,---,0.00,VWS V15.00,2015-04-01 04:56:00,
2015-04-01 00:57:00,40.5,35.5,30.03,East,81,0.0,3.0,82,0.00,,---,0.00,VWS V15.00,2015-04-01 04:57:00,
2015-04-01 00:59:00,40.2,35.2,30.03,East,81,1.0,3.0,82,0.00,,---,0.00,VWS V15.00,2015-04-01 04:59:00,
2015-04-01 01:00:00,40.4,35.3,30.03,NE,51,3.0,4.0,82,0.00,,---,0.00,VWS V15.00,2015-04-01 05:00:00,
2015-04-01 01:01:00,40.3,35.2,30.03,NE,51,0.0,3.0,82,0.00,,---,0.00,VWS V15.00,2015-04-01 05:01:00,
2015-04-01 01:04:00,40.0,35.0,30.03,ENE,77,3.0,3.0,82,0.00,,---,0.00,VWS V15.00,2015-04-01 05:04:00,
2015-04-01 01:09:00,39.8,34.8,30.03,ENE,75,1.0,1.0,82,0.00,,---,0.00,VWS V15.00,2015-04-01 05:09:00,
2015-04-01 01:14:00,39.6,34.6,30.03,ENE,60,0.0,0.0,82,0.00,,---,0.00,VWS V15.00,2015-04-01 05:14:00,
2015-04-01 01:19:00,39.5,34.8,30.03,East,81,1.0,3.0,83,0.00,,---,0.00,VWS V15.00,2015-04-01 05:19:00,
2015-04-01 01:24:00,39.3,34.6,30.04,ENE,73,0.0,0.0,83,0.00,,---,0.00,VWS V15.00,2015-04-01 05:24:00,
2015-04-01 01:29:00,39.1,34.4,30.04,ENE,72,0.0,1.0,83,0.00,,---,0.00,VWS V15.00,2015-04-01 05:29:00,
2015-04-01 01:34:00,38.9,34.2,30.04,SE,146,0.0,0.0,83,0.00,,---,0.00,VWS V15.00,2015-04-01 05:34:00,
2015-04-01 01:39:00,38.7,34.3,30.05,ENE,74,2.0,2.0,84,0.00,,---,0.00,VWS V15.00,2015-04-01 05:39:00,
2015-04-01 01:44:00,38.6,34.2,30.05,ENE,65,0.0,0.0,84,0.00,,---,0.00,VWS V15.00,2015-04-01 05:44:00,
2015-04-01 01:49:00,38.4,34.0,30.05,ENE,65,0.0,0.0,84,0.00,,---,0.00,VWS V15.00,2015-04-01 05:49:00,
2015-04-01 01:54:00,38.3,33.9,30.05,ENE,67,0.0,1.0,84,0.00,,---,0.00,VWS V15.00,2015-04-01 05:54:00,
2015-04-01 01:59:00,38.2,34.1,30.05,ENE,67,0.0,0.0,85,0.00,,---,0.00,VWS V15.00,2015-04-01 05:59:00,
2015-04-01 02:04:00,38.0,33.9,30.05,ENE,67,0.0,0.0,85,0.00,,---,0.00,VWS V15.00,2015-04-01 06:04:00,
2015-04-01 02:09:00,37.9,33.8,30.05,ENE,67,0.0,0.0,85,0.00,,---,0.00,VWS V15.00,2015-04-01 06:09:00,
2015-04-01 02:14:00,37.8,33.7,30.06,ENE,67,0.0,0.0,85,0.00,,---,0.00,VWS V15.00,2015-04-01 06:14:00,
2015-04-01 02:19:00,37.6,33.5,30.05,ENE,67,0.0,0.0,85,0.00,,---,0.00,VWS V15.00,2015-04-01 06:19:00,
2015-04-01 02:24:00,37.4,33.3,30.05,ENE,67,0.0,0.0,85,0.00,,---,0.00,VWS V15.00,2015-04-01 06:24:00,
2015-04-01 02:29:00,37.2,33.1,30.06,ENE,67,0.0,0.0,85,0.00,,---,0.00,VWS V15.00,2015-04-01 06:29:00,
2015-04-01 02:34:00,37.0,33.2,30.06,ENE,67,0.0,0.0,86,0.00,,---,0.00,VWS V15.00,2015-04-01 06:34:00,
2015-04-01 02:39:00,36.9,33.1,30.06,ENE,67,0.0,0.0,86,0.00,,---,0.00,VWS V15.00,2015-04-01 06:39:00,
2015-04-01 02:44:00,36.7,32.9,30.06,ENE,67,0.0,0.0,86,0.00,,---,0.00,VWS V15.00,2015-04-01 06:44:00,
2015-04-01 02:49:00,36.6,33.1,30.06,ENE,67,0.0,0.0,87,0.00,,---,0.00,VWS V15.00,2015-04-01 06:49:00,
2015-04-01 02:54:00,36.5,33.0,30.06,ENE,67,0.0,0.0,87,0.00,,---,0.00,VWS V15.00,2015-04-01 06:54:00,
2015-04-01 02:59:00,36.3,32.8,30.06,ENE,67,0.0,0.0,87,0.00,,---,0.00,VWS V15.00,2015-04-01 06:59:00,
2015-04-01 03:04:00,36.1,32.6,30.06,ENE,67,0.0,0.0,87,0.00,,---,0.00,VWS V15.00,2015-04-01 07:04:00,
2015-04-01 03:09:00,35.9,32.4,30.06,ENE,67,0.0,0.0,87,0.00,,---,0.00,VWS V15.00,2015-04-01 07:09:00,
2015-04-01 03:14:00,35.7,32.2,30.06,ENE,67,0.0,0.0,87,0.00,,---,0.00,VWS V15.00,2015-04-01 07:14:00,
2015-04-01 03:19:00,35.5,32.0,30.06,ENE,67,0.0,0.0,87,0.00,,---,0.00,VWS V15.00,2015-04-01 07:19:00,
2015-04-01 03:24:00,35.3,32.1,30.06,ENE,67,0.0,0.0,88,0.00,,---,0.00,VWS V15.00,2015-04-01 07:24:00,
2015-04-01 03:29:00,35.1,31.9,30.06,ENE,67,0.0,0.0,88,0.00,,---,0.00,VWS V15.00,2015-04-01 07:29:00,
2015-04-01 03:34:00,34.9,31.7,30.05,ENE,67,0.0,0.0,88,0.00,,---,0.00,VWS V15.00,2015-04-01 07:34:00,
2015-04-01 03:39:00,34.7,31.5,30.05,ENE,67,0.0,0.0,88,0.00,,---,0.00,VWS V15.00,2015-04-01 07:39:00,
2015-04-01 03:44:00,34.6,31.7,30.05,ENE,67,0.0,0.0,89,0.00,,---,0.00,VWS V15.00,2015-04-01 07:44:00,
2015-04-01 03:49:00,34.4,31.5,30.05,ENE,67,0.0,0.0,89,0.00,,---,0.00,VWS V15.00,2015-04-01 07:49:00,
2015-04-01 03:54:00,34.3,31.4,30.05,ENE,67,0.0,0.0,89,0.00,,---,0.00,VWS V15.00,2015-04-01 07:54:00,
2015-04-01 03:59:00,34.3,31.4,30.05,ENE,67,0.0,0.0,89,0.00,,---,0.00,VWS V15.00,2015-04-01 07:59:00,
2015-04-01 04:04:00,34.1,31.2,30.05,ENE,67,0.0,0.0,89,0.00,,---,0.00,VWS V15.00,2015-04-01 08:04:00,
2015-04-01 04:09:00,34.0,31.4,30.05,ENE,67,0.0,0.0,90,0.00,,---,0.00,VWS V15.00,2015-04-01 08:09:00,
2015-04-01 04:14:00,33.9,31.3,30.05,ENE,67,0.0,0.0,90,0.00,,---,0.00,VWS V15.00,2015-04-01 08:14:00,
2015-04-01 04:19:00,33.8,31.2,30.05,ENE,67,0.0,0.0,90,0.00,,---,0.00,VWS V15.00,2015-04-01 08:19:00,
2015-04-01 04:24:00,33.7,31.1,30.05,ENE,67,0.0,0.0,90,0.00,,---,0.00,VWS V15.00,2015-04-01 08:24:00,
2015-04-01 04:29:00,33.6,31.0,30.05,ENE,67,0.0,0.0,90,0.00,,---,0.00,VWS V15.00,2015-04-01 08:29:00,
2015-04-01 04:34:00,33.5,30.9,30.05,ENE,67,0.0,0.0,90,0.00,,---,0.00,VWS V15.00,2015-04-01 08:34:00,
2015-04-01 04:39:00,33.4,30.8,30.05,ENE,67,0.0,0.0,90,0.00,,---,0.00,VWS V15.00,2015-04-01 08:39:00,
2015-04-01 04:44:00,33.3,31.0,30.05,ENE,67,0.0,0.0,91,0.00,,---,0.00,VWS V15.00,2015-04-01 08:44:00,
2015-04-01 04:49:00,33.3,31.0,30.06,ENE,67,0.0,0.0,91,0.00,,---,0.00,VWS V15.00,2015-04-01 08:49:00,
2015-04-01 04:54:00,33.2,30.9,30.06,ENE,67,0.0,0.0,91,0.00,,---,0.00,VWS V15.00,2015-04-01 08:54:00,
2015-04-01 04:59:00,33.2,30.9,30.06,ENE,67,0.0,0.0,91,0.00,,---,0.00,VWS V15.00,2015-04-01 08:59:00,
2015-04-01 05:04:00,33.1,30.8,30.06,ENE,67,0.0,0.0,91,0.00,,---,0.00,VWS V15.00,2015-04-01 09:04:00,
2015-04-01 05:09:00,33.0,30.7,30.06,ENE,67,0.0,0.0,91,0.00,,---,0.00,VWS V15.00,2015-04-01 09:09:00,
2015-04-01 05:14:00,33.0,30.7,30.06,ENE,67,0.0,0.0,91,0.00,,---,0.00,VWS V15.00,2015-04-01 09:14:00,
2015-04-01 05:19:00,32.8,30.5,30.06,ENE,67,0.0,0.0,91,0.00,,---,0.00,VWS V15.00,2015-04-01 09:19:00,
2015-04-01 05:24:00,32.8,30.5,30.06,ENE,67,0.0,0.0,91,0.00,,---,0.00,VWS V15.00,2015-04-01 09:24:00,
2015-04-01 05:29:00,32.8,30.7,30.06,ENE,67,0.0,0.0,92,0.00,,---,0.00,VWS V15.00,2015-04-01 09:29:00,
2015-04-01 05:34:00,32.8,30.7,30.06,ENE,67,0.0,0.0,92,0.00,,---,0.00,VWS V15.00,2015-04-01 09:34:00,
2015-04-01 05:39:00,32.7,30.6,30.06,ENE,67,0.0,0.0,92,0.00,,---,0.00,VWS V15.00,2015-04-01 09:39:00,
2015-04-01 05:44:00,32.7,30.6,30.06,ENE,67,0.0,0.0,92,0.00,,---,0.00,VWS V15.00,2015-04-01 09:44:00,
2015-04-01 05:49:00,32.6,30.5,30.06,ENE,67,0.0,0.0,92,0.00,,---,0.00,VWS V15.00,2015-04-01 09:49:00,
2015-04-01 05:54:00,32.5,30.4,30.06,ENE,67,0.0,0.0,92,0.00,,---,0.00,VWS V15.00,2015-04-01 09:54:00,
2015-04-01 05:59:00,32.5,30.4,30.06,ENE,67,0.0,0.0,92,0.00,,---,0.00,VWS V15.00,2015-04-01 09:59:00,
2015-04-01 06:04:00,32.5,30.4,30.07,ENE,67,0.0,0.0,92,0.00,,---,0.00,VWS V15.00,2015-04-01 10:04:00,
2015-04-01 06:09:00,32.4,30.3,30.07,ENE,67,0.0,0.0,92,0.00,,---,0.00,VWS V15.00,2015-04-01 10:09:00,
2015-04-01 06:14:00,32.2,30.1,30.07,ENE,67,0.0,0.0,92,0.00,,---,0.00,VWS V15.00,2015-04-01 10:14:00,
2015-04-01 06:19:00,32.1,30.0,30.07,ENE,67,0.0,0.0,92,0.00,,---,0.00,VWS V15.00,2015-04-01 10:19:00,
2015-04-01 06:24:00,32.0,29.9,30.07,ENE,67,0.0,0.0,92,0.00,,---,0.00,VWS V15.00,2015-04-01 10:24:00,
2015-04-01 06:29:00,31.9,29.8,30.08,ENE,67,0.0,0.0,92,0.00,,---,0.00,VWS V15.00,2015-04-01 10:29:00,
2015-04-01 06:34:00,31.8,29.8,30.08,ENE,67,0.0,0.0,92,0.00,,---,0.00,VWS V15.00,2015-04-01 10:34:00,
2015-04-01 06:39:00,31.7,29.6,30.08,ENE,67,0.0,0.0,92,0.00,,---,0.00,VWS V15.00,2015-04-01 10:39:00,
2015-04-01 06:44:00,31.7,29.6,30.09,ENE,67,0.0,0.0,92,0.00,,---,0.00,VWS V15.00,2015-04-01 10:44:00,
2015-04-01 06:49:00,31.7,29.6,30.09,ENE,67,0.0,0.0,92,0.00,,---,0.00,VWS V15.00,2015-04-01 10:49:00,
2015-04-01 06:54:00,31.5,29.7,30.10,ENE,67,0.0,0.0,93,0.00,,---,0.00,VWS V15.00,2015-04-01 10:54:00,
2015-04-01 06:59:00,31.5,29.7,30.10,ENE,67,0.0,0.0,93,0.00,,---,0.00,VWS V15.00,2015-04-01 10:59:00,
2015-04-01 07:04:00,31.5,29.7,30.10,ENE,67,0.0,0.0,93,0.00,,---,0.00,VWS V15.00,2015-04-01 11:04:00,
2015-04-01 07:09:00,31.5,29.7,30.10,ENE,67,0.0,0.0,93,0.00,,---,0.00,VWS V15.00,2015-04-01 11:09:00,
2015-04-01 07:14:00,31.5,29.7,30.10,ENE,67,0.0,0.0,93,0.00,,---,0.00,VWS V15.00,2015-04-01 11:14:00,
2015-04-01 07:19:00,31.5,29.7,30.10,ENE,67,0.0,0.0,93,0.00,,---,0.00,VWS V15.00,2015-04-01 11:19:00,
2015-04-01 07:24:00,31.4,29.6,30.10,ENE,67,0.0,0.0,93,0.00,,---,0.00,VWS V15.00,2015-04-01 11:24:00,
2015-04-01 07:29:00,31.4,29.6,30.11,ENE,67,0.0,0.0,93,0.00,,---,0.00,VWS V15.00,2015-04-01 11:29:00,
2015-04-01 07:34:00,31.4,29.6,30.11,ENE,67,0.0,0.0,93,0.00,,---,0.00,VWS V15.00,2015-04-01 11:34:00,
2015-04-01 07:39:00,31.5,29.7,30.11,ENE,67,0.0,0.0,93,0.00,,---,0.00,VWS V15.00,2015-04-01 11:39:00,
2015-04-01 07:44:00,31.5,29.7,30.11,ENE,67,0.0,0.0,93,0.00,,---,0.00,VWS V15.00,2015-04-01 11:44:00,
2015-04-01 07:48:00,31.7,30.2,30.11,ENE,67,0.0,0.0,94,0.00,,---,0.00,VWS V15.00,2015-04-01 11:48:00,
2015-04-01 07:53:00,32.2,30.7,30.12,ENE,67,0.0,0.0,94,0.00,,---,0.00,VWS V15.00,2015-04-01 11:53:00,
2015-04-01 07:58:00,32.9,31.4,30.12,ENE,67,0.0,0.0,94,0.00,,---,0.00,VWS V15.00,2015-04-01 11:58:00,
2015-04-01 08:03:00,33.6,32.1,30.13,ENE,67,0.0,0.0,94,0.00,,---,0.00,VWS V15.00,2015-04-01 12:03:00,
2015-04-01 08:08:00,34.3,33.0,30.13,ENE,67,0.0,0.0,95,0.00,,---,0.00,VWS V15.00,2015-04-01 12:08:00,
2015-04-01 08:13:00,34.9,33.6,30.13,ENE,67,0.0,0.0,95,0.00,,---,0.00,VWS V15.00,2015-04-01 12:13:00,
2015-04-01 08:18:00,35.5,34.0,30.13,ENE,67,0.0,0.0,94,0.00,,---,0.00,VWS V15.00,2015-04-01 12:18:00,
2015-04-01 08:23:00,36.4,34.8,30.14,ENE,67,0.0,0.0,94,0.00,,---,0.00,VWS V15.00,2015-04-01 12:23:00,
2015-04-01 08:28:00,37.1,35.3,30.14,ENE,67,0.0,0.0,93,0.00,,---,0.00,VWS V15.00,2015-04-01 12:28:00,
2015-04-01 08:33:00,37.8,35.7,30.14,ENE,67,0.0,0.0,92,0.00,,---,0.00,VWS V15.00,2015-04-01 12:33:00,
2015-04-01 08:38:00,38.4,35.7,30.14,ENE,67,0.0,1.0,90,0.00,,---,0.00,VWS V15.00,2015-04-01 12:38:00,
2015-04-01 08:43:00,39.0,36.0,30.14,ENE,67,0.0,0.0,89,0.00,,---,0.00,VWS V15.00,2015-04-01 12:43:00,
2015-04-01 08:48:00,39.6,36.3,30.15,ENE,67,0.0,0.0,88,0.00,,---,0.00,VWS V15.00,2015-04-01 12:48:00,
2015-04-01 08:53:00,40.2,36.3,30.15,ENE,67,1.0,1.0,86,0.00,,---,0.00,VWS V15.00,2015-04-01 12:53:00,
2015-04-01 08:58:00,40.7,36.5,30.15,ESE,106,2.0,2.0,85,0.00,,---,0.00,VWS V15.00,2015-04-01 12:58:00,
2015-04-01 09:03:00,41.1,36.6,30.15,ESE,106,0.0,0.0,84,0.00,,---,0.00,VWS V15.00,2015-04-01 13:03:00,
2015-04-01 09:08:00,41.5,36.7,30.15,ESE,106,1.0,1.0,83,0.00,,---,0.00,VWS V15.00,2015-04-01 13:08:00,
2015-04-01 09:13:00,42.1,37.3,30.16,SSE,153,1.0,2.0,83,0.00,,---,0.00,VWS V15.00,2015-04-01 13:13:00,
2015-04-01 09:18:00,42.7,37.6,30.16,SE,139,2.0,2.0,82,0.00,,---,0.00,VWS V15.00,2015-04-01 13:18:00,
2015-04-01 09:23:00,43.3,37.6,30.16,SE,140,2.0,2.0,80,0.00,,---,0.00,VWS V15.00,2015-04-01 13:23:00,
2015-04-01 09:28:00,44.1,38.3,30.16,SE,140,0.0,1.0,80,0.00,,---,0.00,VWS V15.00,2015-04-01 13:28:00,
2015-04-01 09:33:00,44.6,38.2,30.16,SSE,151,2.0,3.0,78,0.00,,---,0.00,VWS V15.00,2015-04-01 13:33:00,
2015-04-01 09:38:00,45.1,38.3,30.17,SSE,160,0.0,1.0,77,0.00,,---,0.00,VWS V15.00,2015-04-01 13:38:00,
2015-04-01 09:43:00,45.9,39.1,30.17,SSE,160,2.0,2.0,77,0.00,,---,0.00,VWS V15.00,2015-04-01 13:43:00,
2015-04-01 09:48:00,46.7,38.9,30.17,SE,141,0.0,0.0,74,0.00,,---,0.00,VWS V15.00,2015-04-01 13:48:00,
2015-04-01 09:53:00,47.4,38.8,30.16,SE,146,1.0,1.0,72,0.00,,---,0.00,VWS V15.00,2015-04-01 13:53:00,
2015-04-01 09:58:00,48.0,39.1,30.16,SE,146,0.0,0.0,71,0.00,,---,0.00,VWS V15.00,2015-04-01 13:58:00,
2015-04-01 10:03:00,48.5,39.2,30.17,SE,146,0.0,0.0,70,0.00,,---,0.00,VWS V15.00,2015-04-01 14:03:00,
2015-04-01 10:08:00,49.1,39.4,30.17,SSE,168,1.0,1.0,69,0.00,,---,0.00,VWS V15.00,2015-04-01 14:08:00,
2015-04-01 10:13:00,49.5,39.8,30.17,SSE,168,0.0,1.0,69,0.00,,---,0.00,VWS V15.00,2015-04-01 14:13:00,
2015-04-01 10:18:00,50.2,39.7,30.18,South,173,0.0,1.0,67,0.00,,---,0.00,VWS V15.00,2015-04-01 14:18:00,
2015-04-01 10:23:00,50.8,39.9,30.19,South,189,1.0,2.0,66,0.00,,---,0.00,VWS V15.00,2015-04-01 14:23:00,
2015-04-01 10:28:00,51.2,39.8,30.19,South,185,1.0,1.0,65,0.00,,---,0.00,VWS V15.00,2015-04-01 14:28:00,
2015-04-01 10:33:00,51.8,40.4,30.19,SE,134,0.0,1.0,65,0.00,,---,0.00,VWS V15.00,2015-04-01 14:33:00,
2015-04-01 10:38:00,52.2,40.4,30.19,SSE,158,3.0,4.0,64,0.00,,---,0.00,VWS V15.00,2015-04-01 14:38:00,
2015-04-01 10:43:00,52.2,39.6,30.19,SE,126,0.0,0.0,62,0.00,,---,0.00,VWS V15.00,2015-04-01 14:43:00,
2015-04-01 10:48:00,52.7,40.5,30.19,SE,144,0.0,2.0,63,0.00,,---,0.00,VWS V15.00,2015-04-01 14:48:00,
2015-04-01 10:53:00,53.3,40.6,30.19,SE,144,0.0,1.0,62,0.00,,---,0.00,VWS V15.00,2015-04-01 14:53:00,
2015-04-01 10:58:00,53.8,40.7,30.19,SE,144,0.0,1.0,61,0.00,,---,0.00,VWS V15.00,2015-04-01 14:58:00,
2015-04-01 11:03:00,54.2,40.6,30.19,SE,145,0.0,2.0,60,0.00,,---,0.00,VWS V15.00,2015-04-01 15:03:00,
2015-04-01 11:08:00,54.6,40.6,30.19,SE,144,1.0,5.0,59,0.00,,---,0.00,VWS V15.00,2015-04-01 15:08:00,
2015-04-01 11:13:00,54.4,39.5,30.19,SE,143,1.0,2.0,57,0.00,,---,0.00,VWS V15.00,2015-04-01 15:13:00,
2015-04-01 11:18:00,54.2,40.2,30.18,ESE,106,0.0,2.0,59,0.00,,---,0.00,VWS V15.00,2015-04-01 15:18:00,
2015-04-01 11:23:00,54.6,40.6,30.19,ESE,112,1.0,4.0,59,0.00,,---,0.00,VWS V15.00,2015-04-01 15:23:00,
2015-04-01 11:28:00,55.0,40.5,30.19,ESE,112,0.0,1.0,58,0.00,,---,0.00,VWS V15.00,2015-04-01 15:28:00,
2015-04-01 11:33:00,55.7,40.7,30.19,South,170,0.0,2.0,57,0.00,,---,0.00,VWS V15.00,2015-04-01 15:33:00,
2015-04-01 11:38:00,56.4,40.9,30.19,South,170,0.0,1.0,56,0.00,,---,0.00,VWS V15.00,2015-04-01 15:38:00,
2015-04-01 11:43:00,56.9,40.4,30.19,SSE,150,0.0,2.0,54,0.00,,---,0.00,VWS V15.00,2015-04-01 15:43:00,
2015-04-01 11:48:00,57.2,40.2,30.19,South,180,1.0,4.0,53,0.00,,---,0.00,VWS V15.00,2015-04-01 15:48:00,
2015-04-01 11:53:00,57.4,39.9,30.19,SSE,151,2.0,5.0,52,0.00,,---,0.00,VWS V15.00,2015-04-01 15:53:00,
2015-04-01 11:58:00,57.4,40.4,30.18,SSE,150,1.0,1.0,53,0.00,,---,0.00,VWS V15.00,2015-04-01 15:58:00,
2015-04-01 12:03:00,57.4,40.4,30.19,ENE,75,0.0,1.0,53,0.00,,---,0.00,VWS V15.00,2015-04-01 16:03:00,
2015-04-01 12:08:00,58.0,41.9,30.19,ENE,75,0.0,0.0,55,0.00,,---,0.00,VWS V15.00,2015-04-01 16:08:00,
2015-04-01 12:13:00,58.6,40.5,30.19,ENE,75,0.0,1.0,51,0.00,,---,0.00,VWS V15.00,2015-04-01 16:13:00,
2015-04-01 12:18:00,58.9,39.8,30.19,SE,126,2.0,3.0,49,0.00,,---,0.00,VWS V15.00,2015-04-01 16:18:00,
2015-04-01 12:23:00,59.1,40.5,30.19,SE,129,1.0,2.0,50,0.00,,---,0.00,VWS V15.00,2015-04-01 16:23:00,
2015-04-01 12:28:00,59.3,40.7,30.18,SE,129,1.0,1.0,50,0.00,,---,0.00,VWS V15.00,2015-04-01 16:28:00,
2015-04-01 12:33:00,59.7,40.0,30.19,SSE,147,1.0,2.0,48,0.00,,---,0.00,VWS V15.00,2015-04-01 16:33:00,
2015-04-01 12:38:00,60.0,40.3,30.19,SW,229,1.0,1.0,48,0.00,,---,0.00,VWS V15.00,2015-04-01 16:38:00,
2015-04-01 12:43:00,60.5,40.2,30.18,SW,229,1.0,1.0,47,0.00,,---,0.00,VWS V15.00,2015-04-01 16:43:00,
2015-04-01 12:48:00,60.5,40.7,30.18,South,189,1.0,2.0,48,0.00,,---,0.00,VWS V15.00,2015-04-01 16:48:00,
2015-04-01 12:53:00,61.0,42.2,30.18,ESE,111,2.0,2.0,50,0.00,,---,0.00,VWS V15.00,2015-04-01 16:53:00,
2015-04-01 12:58:00,61.2,41.4,30.18,SSE,156,1.0,3.0,48,0.00,,---,0.00,VWS V15.00,2015-04-01 16:58:00,
2015-04-01 13:03:00,61.5,40.5,30.18,SSE,156,2.0,2.0,46,0.00,,---,0.00,VWS V15.00,2015-04-01 17:03:00,
2015-04-01 13:08:00,61.5,40.5,30.18,SE,139,0.0,0.0,46,0.00,,---,0.00,VWS V15.00,2015-04-01 17:08:00,
2015-04-01 13:13:00,62.0,41.0,30.18,SE,125,4.0,4.0,46,0.00,,---,0.00,VWS V15.00,2015-04-01 17:13:00,
2015-04-01 13:18:00,62.0,38.7,30.18,East,101,1.0,2.0,42,0.00,,---,0.00,VWS V15.00,2015-04-01 17:18:00,
2015-04-01 13:23:00,60.9,38.9,30.17,ENE,72,0.0,3.0,44,0.00,,---,0.00,VWS V15.00,2015-04-01 17:23:00,
2015-04-01 13:28:00,60.2,38.8,30.17,ENE,74,1.0,4.0,45,0.00,,---,0.00,VWS V15.00,2015-04-01 17:28:00,
2015-04-01 13:33:00,60.5,39.1,30.17,North,3,0.0,3.0,45,0.00,,---,0.00,VWS V15.00,2015-04-01 17:33:00,
2015-04-01 13:38:00,60.6,38.0,30.17,East,89,1.0,1.0,43,0.00,,---,0.00,VWS V15.00,2015-04-01 17:38:00,
2015-04-01 13:43:00,60.8,38.8,30.17,ENE,60,0.0,0.0,44,0.00,,---,0.00,VWS V15.00,2015-04-01 17:43:00,
2015-04-01 13:48:00,61.4,40.5,30.17,SE,144,1.0,1.0,46,0.00,,---,0.00,VWS V15.00,2015-04-01 17:48:00,
2015-04-01 13:53:00,61.4,38.1,30.17,East,83,0.0,1.0,42,0.00,,---,0.00,VWS V15.00,2015-04-01 17:53:00,
2015-04-01 13:58:00,61.6,39.5,30.16,SE,138,0.0,1.0,44,0.00,,---,0.00,VWS V15.00,2015-04-01 17:58:00,
2015-04-01 14:03:00,62.1,38.1,30.16,SSE,154,1.0,1.0,41,0.00,,---,0.00,VWS V15.00,2015-04-01 18:03:00,
2015-04-01 14:08:00,62.2,37.0,30.15,East,80,1.0,3.0,39,0.00,,---,0.00,VWS V15.00,2015-04-01 18:08:00,
2015-04-01 14:13:00,62.0,38.0,30.15,NE,54,0.0,2.0,41,0.00,,---,0.00,VWS V15.00,2015-04-01 18:13:00,
2015-04-01 14:18:00,62.0,36.8,30.15,North,1,0.0,1.0,39,0.00,,---,0.00,VWS V15.00,2015-04-01 18:18:00,
2015-04-01 14:23:00,62.4,37.1,30.15,SE,137,1.0,2.0,39,0.00,,---,0.00,VWS V15.00,2015-04-01 18:23:00,
2015-04-01 14:28:00,62.8,36.8,30.15,SSE,153,2.0,3.0,38,0.00,,---,0.00,VWS V15.00,2015-04-01 18:28:00,
2015-04-01 14:33:00,63.1,37.1,30.14,South,172,0.0,0.0,38,0.00,,---,0.00,VWS V15.00,2015-04-01 18:33:00,
2015-04-01 14:38:00,63.3,37.3,30.14,ENE,75,3.0,5.0,38,0.00,,---,0.00,VWS V15.00,2015-04-01 18:38:00,
2015-04-01 14:43:00,63.5,36.8,30.14,NE,54,0.0,2.0,37,0.00,,---,0.00,VWS V15.00,2015-04-01 18:43:00,
2015-04-01 14:48:00,63.1,35.7,30.14,North,356,0.0,1.0,36,0.00,,---,0.00,VWS V15.00,2015-04-01 18:48:00,
2015-04-01 14:53:00,63.3,36.6,30.14,NE,52,3.0,3.0,37,0.00,,---,0.00,VWS V15.00,2015-04-01 18:53:00,
2015-04-01 14:58:00,63.8,39.7,30.13,SSE,167,2.0,2.0,41,0.00,,---,0.00,VWS V15.00,2015-04-01 18:58:00,
2015-04-01 15:03:00,64.2,38.1,30.13,SE,130,1.0,1.0,38,0.00,,---,0.00,VWS V15.00,2015-04-01 19:03:00,
2015-04-01 15:07:00,64.4,37.6,30.13,SE,130,0.0,1.0,37,0.00,,---,0.00,VWS V15.00,2015-04-01 19:07:00,
2015-04-01 15:12:00,64.5,37.0,30.13,SE,133,0.0,0.0,36,0.00,,---,0.00,VWS V15.00,2015-04-01 19:12:00,
2015-04-01 15:17:00,64.6,36.3,30.13,North,356,0.0,0.0,35,0.00,,---,0.00,VWS V15.00,2015-04-01 19:17:00,
2015-04-01 15:22:00,64.5,36.3,30.13,ENE,69,2.0,2.0,35,0.00,,---,0.00,VWS V15.00,2015-04-01 19:22:00,
2015-04-01 15:27:00,64.4,35.5,30.13,ENE,69,1.0,3.0,34,0.00,,---,0.00,VWS V15.00,2015-04-01 19:27:00,
2015-04-01 15:32:00,64.4,36.9,30.13,ESE,105,2.0,2.0,36,0.00,,---,0.00,VWS V15.00,2015-04-01 19:32:00,
2015-04-01 15:37:00,64.2,36.0,30.12,ENE,63,0.0,1.0,35,0.00,,---,0.00,VWS V15.00,2015-04-01 19:37:00,
2015-04-01 15:42:00,64.2,36.7,30.12,NE,51,0.0,5.0,36,0.00,,---,0.00,VWS V15.00,2015-04-01 19:42:00,
2015-04-01 15:47:00,64.2,34.5,30.12,NE,55,3.0,3.0,33,0.00,,---,0.00,VWS V15.00,2015-04-01 19:47:00,
2015-04-01 15:52:00,64.3,36.1,30.11,ENE,71,5.0,5.0,35,0.00,,---,0.00,VWS V15.00,2015-04-01 19:52:00,
2015-04-01 15:57:00,64.3,35.4,30.12,NE,54,0.0,1.0,34,0.00,,---,0.00,VWS V15.00,2015-04-01 19:57:00,
2015-04-01 16:02:00,64.5,35.5,30.12,ENE,76,6.0,6.0,34,0.00,,---,0.00,VWS V15.00,2015-04-01 20:02:00,
2015-04-01 16:07:00,64.5,35.5,30.11,ENE,58,2.0,4.0,34,0.00,,---,0.00,VWS V15.00,2015-04-01 20:07:00,
2015-04-01 16:12:00,64.3,34.6,30.11,North,360,0.0,0.0,33,0.00,,---,0.00,VWS V15.00,2015-04-01 20:12:00,
2015-04-01 16:17:00,64.4,33.9,30.11,ENE,58,0.0,0.0,32,0.00,,---,0.00,VWS V15.00,2015-04-01 20:17:00,
2015-04-01 16:22:00,64.9,34.4,30.11,SE,135,0.0,1.0,32,0.00,,---,0.00,VWS V15.00,2015-04-01 20:22:00,
2015-04-01 16:41:00,66.2,37.8,30.11,SSE,162,1.0,1.0,35,0.00,,---,0.00,VWS V15.00,2015-04-01 20:41:00,
2015-04-01 16:46:00,66.4,37.9,30.10,ENE,66,0.0,1.0,35,0.00,,---,0.00,VWS V15.00,2015-04-01 20:46:00,
2015-04-01 16:51:00,67.1,37.1,30.10,SW,222,1.0,1.0,33,0.00,,---,0.00,VWS V15.00,2015-04-01 20:51:00,
2015-04-01 16:56:00,66.8,36.0,30.10,ENE,60,0.0,2.0,32,0.00,,---,0.00,VWS V15.00,2015-04-01 20:56:00,
2015-04-01 17:01:00,66.1,36.2,30.10,ESE,109,1.0,2.0,33,0.00,,---,0.00,VWS V15.00,2015-04-01 21:01:00,
2015-04-01 17:06:00,66.1,36.2,30.10,SE,137,0.0,2.0,33,0.00,,---,0.00,VWS V15.00,2015-04-01 21:06:00,
2015-04-01 17:11:00,66.1,36.2,30.10,SSE,149,1.0,3.0,33,0.00,,---,0.00,VWS V15.00,2015-04-01 21:11:00,
2015-04-01 17:16:00,65.9,36.0,30.10,South,181,2.0,3.0,33,0.00,,---,0.00,VWS V15.00,2015-04-01 21:16:00,
2015-04-01 17:21:00,65.6,35.8,30.10,SE,144,3.0,3.0,33,0.00,,---,0.00,VWS V15.00,2015-04-01 21:21:00,
2015-04-01 17:26:00,65.4,37.1,30.10,SSE,148,1.0,2.0,35,0.00,,---,0.00,VWS V15.00,2015-04-01 21:26:00,
2015-04-01 17:31:00,65.4,36.3,30.10,SSW,202,0.0,5.0,34,0.00,,---,0.00,VWS V15.00,2015-04-01 21:31:00,
2015-04-01 17:36:00,65.3,36.2,30.10,East,94,0.0,1.0,34,0.00,,---,0.00,VWS V15.00,2015-04-01 21:36:00,
2015-04-01 17:41:00,65.0,35.2,30.10,SE,144,0.0,1.0,33,0.00,,---,0.00,VWS V15.00,2015-04-01 21:41:00,
2015-04-01 17:46:00,64.8,35.0,30.10,SSE,164,0.0,1.0,33,0.00,,---,0.00,VWS V15.00,2015-04-01 21:46:00,
2015-04-01 17:51:00,64.8,35.8,30.10,SE,146,3.0,3.0,34,0.00,,---,0.00,VWS V15.00,2015-04-01 21:51:00,
2015-04-01 17:56:00,64.7,35.0,30.10,SE,142,1.0,3.0,33,0.00,,---,0.00,VWS V15.00,2015-04-01 21:56:00,
2015-04-01 18:01:00,64.6,34.9,30.10,SSE,152,0.0,2.0,33,0.00,,---,0.00,VWS V15.00,2015-04-01 22:01:00,
2015-04-01 18:06:00,64.6,36.3,30.10,SSE,152,0.0,1.0,35,0.00,,---,0.00,VWS V15.00,2015-04-01 22:06:00,
2015-04-01 18:11:00,64.5,36.3,30.10,SE,126,1.0,3.0,35,0.00,,---,0.00,VWS V15.00,2015-04-01 22:11:00,
2015-04-01 18:16:00,64.4,36.2,30.10,SE,127,0.0,1.0,35,0.00,,---,0.00,VWS V15.00,2015-04-01 22:16:00,
2015-04-01 18:21:00,64.3,36.1,30.10,ESE,123,0.0,0.0,35,0.00,,---,0.00,VWS V15.00,2015-04-01 22:21:00,
2015-04-01 18:26:00,64.1,35.9,30.10,East,92,3.0,3.0,35,0.00,,---,0.00,VWS V15.00,2015-04-01 22:26:00,
2015-04-01 18:31:00,64.1,35.9,30.10,South,180,2.0,2.0,35,0.00,,---,0.00,VWS V15.00,2015-04-01 22:31:00,
2015-04-01 18:36:00,64.1,35.9,30.10,SSE,154,1.0,1.0,35,0.00,,---,0.00,VWS V15.00,2015-04-01 22:36:00,
2015-04-01 18:41:00,64.0,35.8,30.10,SE,140,1.0,2.0,35,0.00,,---,0.00,VWS V15.00,2015-04-01 22:41:00,
2015-04-01 18:46:00,63.8,35.7,30.10,SSE,152,1.0,2.0,35,0.00,,---,0.00,VWS V15.00,2015-04-01 22:46:00,
2015-04-01 18:51:00,63.6,35.5,30.10,SSE,154,0.0,0.0,35,0.00,,---,0.00,VWS V15.00,2015-04-01 22:51:00,
2015-04-01 18:56:00,63.4,35.3,30.11,ESE,123,2.0,2.0,35,0.00,,---,0.00,VWS V15.00,2015-04-01 22:56:00,
2015-04-01 19:01:00,63.4,35.3,30.10,South,177,0.0,1.0,35,0.00,,---,0.00,VWS V15.00,2015-04-01 23:01:00,
2015-04-01 19:06:00,63.2,35.1,30.10,South,191,1.0,2.0,35,0.00,,---,0.00,VWS V15.00,2015-04-01 23:06:00,
2015-04-01 19:11:00,63.1,35.0,30.10,SSW,196,1.0,2.0,35,0.00,,---,0.00,VWS V15.00,2015-04-01 23:11:00,
2015-04-01 19:16:00,62.9,34.8,30.10,South,183,1.0,4.0,35,0.00,,---,0.00,VWS V15.00,2015-04-01 23:16:00,
2015-04-01 19:20:00,62.6,34.6,30.10,SSE,156,1.0,2.0,35,0.00,,---,0.00,VWS V15.00,2015-04-01 23:20:00,
2015-04-01 19:25:00,62.4,34.4,30.10,ESE,106,0.0,1.0,35,0.00,,---,0.00,VWS V15.00,2015-04-01 23:25:00,
2015-04-01 19:30:00,62.2,34.9,30.10,ESE,106,0.0,0.0,36,0.00,,---,0.00,VWS V15.00,2015-04-01 23:30:00,
2015-04-01 19:36:00,61.9,34.7,30.09,NE,51,0.0,0.0,36,0.00,,---,0.00,VWS V15.00,2015-04-01 23:36:00,
2015-04-01 19:41:00,61.6,34.4,30.09,SSE,165,0.0,0.0,36,0.00,,---,0.00,VWS V15.00,2015-04-01 23:41:00,
2015-04-01 19:46:00,61.3,34.8,30.09,SSE,165,0.0,0.0,37,0.00,,---,0.00,VWS V15.00,2015-04-01 23:46:00,
2015-04-01 19:51:00,61.1,34.7,30.09,SSE,165,0.0,1.0,37,0.00,,---,0.00,VWS V15.00,2015-04-01 23:51:00,
2015-04-01 19:56:00,60.8,35.1,30.09,SSE,165,0.0,1.0,38,0.00,,---,0.00,VWS V15.00,2015-04-01 23:56:00,
2015-04-01 20:01:00,60.5,34.1,30.09,SSE,165,0.0,0.0,37,0.00,,---,0.00,VWS V15.00,2015-04-02 00:01:00,
2015-04-01 20:06:00,60.2,33.8,30.08,ENE,65,0.0,0.0,37,0.00,,---,0.00,VWS V15.00,2015-04-02 00:06:00,
2015-04-01 20:11:00,60.0,33.7,30.09,ENE,66,0.0,0.0,37,0.00,,---,0.00,VWS V15.00,2015-04-02 00:11:00,
2015-04-01 20:16:00,59.7,33.4,30.09,ENE,66,0.0,1.0,37,0.00,,---,0.00,VWS V15.00,2015-04-02 00:16:00,
2015-04-01 20:21:00,59.4,33.8,30.09,ENE,66,0.0,0.0,38,0.00,,---,0.00,VWS V15.00,2015-04-02 00:21:00,
2015-04-01 20:26:00,59.2,33.6,30.09,ENE,66,0.0,0.0,38,0.00,,---,0.00,VWS V15.00,2015-04-02 00:26:00,
2015-04-01 20:31:00,58.9,33.4,30.09,ENE,66,0.0,0.0,38,0.00,,---,0.00,VWS V15.00,2015-04-02 00:31:00,
2015-04-01 20:36:00,58.6,33.1,30.09,ENE,66,0.0,0.0,38,0.00,,---,0.00,VWS V15.00,2015-04-02 00:36:00,
2015-04-01 20:41:00,58.3,32.8,30.10,ENE,66,0.0,0.0,38,0.00,,---,0.00,VWS V15.00,2015-04-02 00:41:00,
2015-04-01 20:46:00,58.0,33.2,30.10,ENE,66,0.0,0.0,39,0.00,,---,0.00,VWS V15.00,2015-04-02 00:46:00,
2015-04-01 20:51:00,57.6,33.5,30.10,ENE,66,0.0,0.0,40,0.00,,---,0.00,VWS V15.00,2015-04-02 00:51:00,
2015-04-01 20:56:00,57.1,33.0,30.10,ENE,66,0.0,0.0,40,0.00,,---,0.00,VWS V15.00,2015-04-02 00:56:00,
2015-04-01 21:01:00,56.8,33.4,30.10,ENE,66,0.0,0.0,41,0.00,,---,0.00,VWS V15.00,2015-04-02 01:01:00,